Location: Caltech
(34.1382°N, 118.1253°W)
Time: 15:18:40
(UTC-08:00)

A-11 Canister half - All Passes

Search period start: 24 January 2017 00:00
Search period end: 03 February 2017 00:00
Orbit: 1514 x 1686 km, 47.2° (Epoch: 23 January)

Date Brightness Start Highest point End Pass type
(mag) Time Alt. Az. Time Alt. Az. Time Alt. Az.
24 Jan - 06:56:40 10° S 07:04:18 28° SE 07:11:45 10° ENE daylight
24 Jan - 08:59:00 10° SW 09:08:25 86° NW 09:17:43 10° NE daylight
24 Jan - 11:05:39 10° W 11:14:15 41° NNW 11:22:53 10° NE daylight
24 Jan - 13:12:40 10° NW 13:21:12 39° NNE 13:29:49 10° E daylight
24 Jan - 15:17:54 10° NW 15:27:14 78° NE 15:36:48 10° ESE daylight
24 Jan - 17:23:30 10° WNW 17:31:35 34° SW 17:39:53 10° S visible
25 Jan - 06:34:06 10° S 06:41:27 26° SE 06:48:40 10° ENE daylight
25 Jan - 08:36:06 10° SW 08:45:32 90° ENE 08:54:48 10° NE daylight
25 Jan - 10:42:35 10° W 10:51:15 42° NNW 10:59:55 10° NE daylight
25 Jan - 12:49:42 10° WNW 12:58:11 38° N 13:06:45 10° ENE daylight
25 Jan - 14:55:01 10° NW 15:04:18 74° NNE 15:13:49 10° ESE daylight
25 Jan - 17:00:29 10° WNW 17:08:44 36° SW 17:17:13 10° SSE daylight
26 Jan - 06:11:34 10° S 06:18:37 24° SE 06:25:32 10° ENE visible
26 Jan - 08:13:10 10° SW 08:22:37 86° SE 08:31:54 10° NE daylight
26 Jan - 10:19:31 10° W 10:28:15 43° NNW 10:36:58 10° NE daylight
26 Jan - 12:26:43 10° WNW 12:35:11 38° N 12:43:41 10° ENE daylight
26 Jan - 14:32:07 10° NW 14:41:22 71° NNE 14:50:51 10° ESE daylight
26 Jan - 16:37:29 10° WNW 16:45:53 39° SW 16:54:31 10° SSE daylight
27 Jan - 05:49:04 10° S 05:55:48 22° SE 06:02:23 10° E visible
27 Jan - 07:50:16 10° SW 07:59:44 81° SE 08:08:59 10° NE daylight
27 Jan - 09:56:28 10° W 10:05:16 44° NNW 10:14:01 10° NE daylight
27 Jan - 12:03:44 10° WNW 12:12:09 37° N 12:20:37 10° ENE daylight
27 Jan - 14:09:13 10° NW 14:18:26 67° NNE 14:27:51 10° ESE daylight
27 Jan - 16:14:30 10° WNW 16:23:01 42° SW 16:31:47 10° SSE daylight
28 Jan - 05:26:37 10° SSE 05:32:58 20° SE 05:39:11 10° E visible
28 Jan - 07:27:22 10° SW 07:36:50 77° SE 07:46:06 10° NE daylight
28 Jan - 09:33:25 10° W 09:42:17 46° NNW 09:51:06 10° NE daylight
28 Jan - 11:40:44 10° WNW 11:49:08 37° N 11:57:33 10° ENE daylight
28 Jan - 13:46:18 10° NW 13:55:30 64° NNE 14:04:51 10° ESE daylight
28 Jan - 15:51:31 10° WNW 16:00:10 45° SW 16:09:02 10° SSE daylight
29 Jan - 05:04:12 10° SSE 05:10:08 18° SE 05:15:57 10° E visible
29 Jan - 07:04:29 10° SW 07:13:57 73° SE 07:23:10 10° ENE daylight
29 Jan - 09:10:21 10° W 09:19:18 47° NNW 09:28:10 10° NE daylight
29 Jan - 11:17:44 10° WNW 11:26:07 36° N 11:34:30 10° ENE daylight
29 Jan - 13:23:25 10° NW 13:32:33 61° NNE 13:41:50 10° ESE daylight
29 Jan - 15:28:34 10° WNW 15:37:18 48° SW 15:46:17 10° SSE daylight
30 Jan - 04:41:53 10° SSE 04:47:18 17° SE 04:52:37 10° E visible
30 Jan - 06:41:37 10° SW 06:51:04 69° SE 07:00:15 10° ENE daylight
30 Jan - 08:47:18 10° W 08:56:20 49° NNW 09:05:14 10° NE daylight
30 Jan - 10:54:43 10° WNW 11:03:06 36° N 11:11:28 10° ENE daylight
30 Jan - 13:00:30 10° NW 13:09:37 59° NNE 13:18:49 10° ESE daylight
30 Jan - 15:05:36 10° WNW 15:14:26 52° SW 15:23:30 10° SSE daylight
31 Jan - 04:19:40 10° SSE 04:24:29 15° ESE 04:29:12 10° E visible
31 Jan - 06:18:46 10° SW 06:28:11 65° SE 06:37:20 10° ENE visible
31 Jan - 08:24:14 10° W 08:33:21 51° NNW 08:42:19 10° NE daylight
31 Jan - 10:31:41 10° WNW 10:40:04 36° N 10:48:25 10° ENE daylight
31 Jan - 12:37:35 10° NW 12:46:39 56° NNE 12:55:48 10° ESE daylight
31 Jan - 14:42:39 10° WNW 14:51:35 55° SW 15:00:43 10° SSE daylight
31 Jan - 16:53:00 10° WSW 16:55:06 11° WSW 16:57:13 10° SW daylight
01 Feb - 03:57:35 10° SSE 04:01:39 13° ESE 04:05:39 10° E visible
01 Feb - 05:55:55 10° SSW 06:05:18 61° SE 06:14:24 10° ENE visible
01 Feb - 08:01:12 10° W 08:10:23 53° NNW 08:19:24 10° NE daylight
01 Feb - 10:08:39 10° WNW 10:17:03 36° N 10:25:23 10° ENE daylight
01 Feb - 12:14:40 10° NW 12:23:41 54° NNE 12:32:46 10° ESE daylight
01 Feb - 14:19:43 10° WNW 14:28:42 59° SW 14:37:54 10° SSE daylight
01 Feb - 16:28:54 10° W 16:32:17 12° WSW 16:35:42 10° SW daylight
02 Feb - 03:35:45 10° SE 03:38:49 12° ESE 03:41:51 10° ESE visible
02 Feb - 05:33:05 10° SSW 05:42:26 57° SE 05:51:28 10° ENE visible
02 Feb - 07:38:09 10° WSW 07:47:25 56° NNW 07:56:29 10° NE daylight
02 Feb - 09:45:37 10° WNW 09:54:02 36° N 10:02:23 10° ENE daylight
02 Feb - 11:51:45 10° NW 12:00:44 52° NNE 12:09:44 10° E daylight
02 Feb - 13:56:46 10° WNW 14:05:50 63° SW 14:15:04 10° SE daylight
02 Feb - 16:05:14 10° W 16:09:28 14° WSW 16:13:45 10° SSW daylight
